Weather History for KRZL - June, 2012

Change the Weather History Date:

Saturday, June 2, 2012

  Actual Average (KVPZ) Record (KVPZ)
Temperature  
Mean Temperature 58 °F 65 °F  
Max Temperature 69 °F 76 °F 86 °F (2007)
Min Temperature 46 °F 54 °F 38 °F (2003)
Degree Days  
Heating Degree Days 8 3  
Month to date heating degree days 6  
Since 1 June heating degree days 6  
Since 1 July heating degree days 6285  
Cooling Degree Days 0 3  
Month to date cooling degree days 6  
Year to date cooling degree days 53  
Since 1 June cooling degree days 6  
Growing Degree Days 8 (Base 50)    
Moisture  
Dew Point 48 °F    
Average Humidity 67    
Maximum Humidity 100    
Minimum Humidity 40    
Precipitation  
Precipitation 0.00 in 0.13 in 0.28 in (2005)
Month to date precipitation 0.26  
Year to date precipitation 13.24  
Sea Level Pressure  
Sea Level Pressure 29.80 in    
Wind  
Wind Speed 9 mph (SW)    
Max Wind Speed 20 mph    
Max Gust Speed 29 mph    
Visibility 10 miles    
Events Rain    
T = Trace of Precipitation, MM = Missing Value Source: NWS Daily Summary

Daily Weather History Graph

Daily Weather History Graph

Search for Another Location

Airport or City:

Trip Planner

Search our weather history database for the weather conditions in past years. The results will help you decide how hot, cold, wet, or windy it might be!

Date:

Astronomy

Jun. 02, 2012 Rise Set
Actual Time 5:18 AM CDT 8:15 PM CDT
Civil Twilight 4:45 AM CDT 8:48 PM CDT
Nautical Twilight 4:03 AM CDT 9:30 PM CDT
Astronomical Twilight 3:15 AM CDT 10:19 PM CDT
Moon 6:29 PM CDT (6/2) 3:37 AM CDT (6/2)
Length of Visible Light 16h 03m
Length of Day
14h 57m
Waxing Gibbous, 95% of the Moon is Illuminated
Jun 2
Waxing Gibbous
Jun 4
Full
Jun 11
Last Quarter
Jun 19
New
Jun 26
First Quarter

Hourly Weather History & Observations

Time (CDT) Temp. Windchill Dew Point Humidity Pressure Visibility Wind Dir Wind Speed Gust Speed Precip Events Conditions
12:15 AM 46.4 °F - 46.4 °F 100% 29.80 in 7.0 mi Calm Calm - N/A   Clear
12:35 AM 48.2 °F - 46.4 °F 93% 29.79 in 7.0 mi Calm Calm - N/A   Clear
12:55 AM 46.4 °F - 46.4 °F 100% 29.79 in 10.0 mi Calm Calm - N/A   Clear
1:15 AM 46.4 °F 43.5 °F 46.4 °F 100% 29.79 in 10.0 mi SW 5.8 mph - N/A   Clear
1:35 AM 50.0 °F - 46.4 °F 87% 29.79 in 10.0 mi SW 6.9 mph - N/A   Clear
1:55 AM 50.0 °F - 46.4 °F 87% 29.78 in 10.0 mi SW 6.9 mph - N/A   Clear
2:15 AM 50.0 °F - 44.6 °F 82% 29.78 in 10.0 mi SW 8.1 mph - N/A   Clear
2:35 AM 50.0 °F - 44.6 °F 82% 29.78 in 10.0 mi SW 6.9 mph - N/A   Clear
2:55 AM 50.0 °F - 44.6 °F 82% 29.78 in 10.0 mi SW 8.1 mph - N/A   Clear
3:15 AM 50.0 °F - 44.6 °F 82% 29.78 in 10.0 mi SW 8.1 mph - N/A   Clear
3:55 AM 50.0 °F - 44.6 °F 82% 29.78 in 10.0 mi SW 6.9 mph - N/A   Clear
4:15 AM 50.0 °F - 44.6 °F 82% 29.78 in 10.0 mi SW 8.1 mph - N/A   Clear
4:35 AM 50.0 °F - 44.6 °F 82% 29.78 in 10.0 mi WSW 8.1 mph - N/A   Clear
4:55 AM 50.0 °F - 44.6 °F 82% 29.79 in 10.0 mi WSW 8.1 mph - N/A   Clear
5:15 AM 50.0 °F - 44.6 °F 82% 29.80 in 10.0 mi WSW 8.1 mph - N/A   Clear
5:35 AM 50.0 °F - 44.6 °F 82% 29.80 in 10.0 mi SW 8.1 mph - N/A   Clear
5:55 AM 51.8 °F - 46.4 °F 82% 29.80 in 10.0 mi WSW 9.2 mph - N/A   Clear
6:15 AM 51.8 °F - 46.4 °F 82% 29.81 in 10.0 mi WSW 9.2 mph - N/A   Clear
6:35 AM 53.6 °F - 46.4 °F 77% 29.81 in 10.0 mi WSW 10.4 mph - N/A   Clear
6:55 AM 53.6 °F - 46.4 °F 77% 29.81 in 10.0 mi WSW 9.2 mph - N/A   Clear
7:15 AM 55.4 °F - 48.2 °F 77% 29.81 in 10.0 mi WSW 11.5 mph - N/A   Clear
7:35 AM 59.0 °F - 48.2 °F 67% 29.81 in 10.0 mi WSW 12.7 mph 17.3 mph N/A   Clear
7:55 AM 59.0 °F - 48.2 °F 67% 29.81 in 10.0 mi WSW 11.5 mph - N/A   Clear
8:15 AM 60.8 °F - 48.2 °F 63% 29.82 in 10.0 mi WSW 11.5 mph 18.4 mph N/A   Clear
8:35 AM 62.6 °F - 50.0 °F 63% 29.82 in 10.0 mi WSW 12.7 mph 17.3 mph N/A   Clear
8:55 AM 62.6 °F - 50.0 °F 63% 29.83 in 10.0 mi WSW 12.7 mph 19.6 mph N/A   Clear
9:15 AM 64.4 °F - 50.0 °F 59% 29.82 in 10.0 mi SW 16.1 mph - N/A   Scattered Clouds
9:35 AM 64.4 °F - 51.8 °F 64% 29.82 in 10.0 mi WSW 15.0 mph 18.4 mph N/A   Clear
9:55 AM 64.4 °F - 50.0 °F 59% 29.82 in 10.0 mi WSW 13.8 mph - N/A   Scattered Clouds
10:15 AM 64.4 °F - 51.8 °F 64% 29.82 in 10.0 mi WSW 17.3 mph 21.9 mph N/A   Mostly Cloudy
10:55 AM 68.0 °F - 50.0 °F 52% 29.82 in 10.0 mi WSW 17.3 mph 24.2 mph N/A   Mostly Cloudy
11:15 AM 68.0 °F - 50.0 °F 52% 29.82 in 10.0 mi WSW 16.1 mph 21.9 mph N/A   Overcast
11:35 AM 66.2 °F - 50.0 °F 56% 29.81 in 10.0 mi WSW 16.1 mph 21.9 mph N/A   Mostly Cloudy
11:55 AM 68.0 °F - 50.0 °F 52% 29.81 in 10.0 mi WSW 15.0 mph 19.6 mph N/A   Mostly Cloudy
12:15 PM 68.0 °F - 50.0 °F 52% 29.81 in 10.0 mi WSW 17.3 mph 24.2 mph N/A   Mostly Cloudy
12:35 PM 69.8 °F - 46.4 °F 43% 29.80 in 10.0 mi WSW 17.3 mph 24.2 mph N/A   Scattered Clouds
12:55 PM 69.8 °F - 46.4 °F 43% 29.79 in 10.0 mi West 18.4 mph 25.3 mph N/A   Scattered Clouds
1:15 PM 69.8 °F - 44.6 °F 40% 29.79 in 10.0 mi WSW 13.8 mph - N/A   Mostly Cloudy
1:55 PM 68.0 °F - 46.4 °F 46% 29.78 in 10.0 mi SW 17.3 mph 24.2 mph N/A   Mostly Cloudy
2:15 PM 68.0 °F - 44.6 °F 43% 29.78 in 10.0 mi WSW 15.0 mph 21.9 mph N/A Rain Light Rain
2:35 PM 69.8 °F - 46.4 °F 43% 29.78 in 10.0 mi WSW 12.7 mph 20.7 mph N/A   Mostly Cloudy
2:55 PM 69.8 °F - 46.4 °F 43% 29.78 in 10.0 mi WSW 16.1 mph 23.0 mph N/A   Scattered Clouds
3:15 PM 69.8 °F - 44.6 °F 40% 29.78 in 10.0 mi WSW 17.3 mph 25.3 mph N/A   Mostly Cloudy
3:35 PM 69.8 °F - 44.6 °F 40% 29.78 in 10.0 mi WSW 19.6 mph 25.3 mph N/A   Mostly Cloudy
3:55 PM 69.8 °F - 46.4 °F 43% 29.78 in 10.0 mi SW 16.1 mph 21.9 mph N/A   Overcast
4:15 PM 69.8 °F - 44.6 °F 40% 29.78 in 10.0 mi WSW 19.6 mph 28.8 mph N/A   Mostly Cloudy
4:35 PM 69.8 °F - 46.4 °F 43% 29.78 in 10.0 mi WSW 13.8 mph 25.3 mph N/A   Scattered Clouds
4:55 PM 69.8 °F - 46.4 °F 43% 29.78 in 10.0 mi WSW 19.6 mph 23.0 mph N/A   Scattered Clouds
5:15 PM 69.8 °F - 46.4 °F 43% 29.78 in 10.0 mi SW 16.1 mph 24.2 mph N/A   Scattered Clouds
5:35 PM 69.8 °F - 46.4 °F 43% 29.78 in 10.0 mi SW 13.8 mph 23.0 mph N/A   Scattered Clouds
5:55 PM 68.0 °F - 46.4 °F 46% 29.78 in 10.0 mi WSW 16.1 mph 19.6 mph N/A   Mostly Cloudy
6:15 PM 69.8 °F - 46.4 °F 43% 29.78 in 10.0 mi WSW 16.1 mph - N/A   Mostly Cloudy
6:35 PM 68.0 °F - 46.4 °F 46% 29.79 in 10.0 mi WSW 11.5 mph - N/A   Scattered Clouds
6:55 PM 68.0 °F - 48.2 °F 49% 29.79 in 10.0 mi SW 9.2 mph - N/A   Scattered Clouds
7:15 PM 68.0 °F - 48.2 °F 49% 29.78 in 10.0 mi WSW 12.7 mph 17.3 mph N/A   Scattered Clouds
7:35 PM 66.2 °F - 50.0 °F 56% 29.79 in 10.0 mi SW 11.5 mph - N/A   Clear
7:55 PM 64.4 °F - 51.8 °F 64% 29.80 in 10.0 mi SW 9.2 mph - N/A   Clear
8:15 PM 62.6 °F - 51.8 °F 68% 29.80 in 10.0 mi SW 8.1 mph - N/A   Clear
8:35 PM 62.6 °F - 51.8 °F 68% 29.81 in 10.0 mi SW 5.8 mph - N/A   Clear
8:55 PM 60.8 °F - 53.6 °F 77% 29.81 in 10.0 mi SW 4.6 mph - N/A   Clear
9:15 PM 59.0 °F - 53.6 °F 82% 29.82 in 10.0 mi Calm Calm - N/A   Clear
9:35 PM 59.0 °F - 53.6 °F 82% 29.83 in 10.0 mi Calm Calm - N/A   Clear
10:15 PM 57.2 °F - 53.6 °F 88% 29.83 in 10.0 mi SSW 5.8 mph - N/A   Clear
10:35 PM 55.4 °F - 53.6 °F 94% 29.83 in 10.0 mi SSW 6.9 mph - N/A   Clear
10:55 PM 57.2 °F - 53.6 °F 88% 29.83 in 10.0 mi SW 8.1 mph - N/A   Clear
11:15 PM 57.2 °F - 53.6 °F 88% 29.84 in 10.0 mi SSW 8.1 mph - N/A   Clear
11:35 PM 55.4 °F - 53.6 °F 94% 29.84 in 10.0 mi SSW 8.1 mph - N/A   Clear
11:55 PM 55.4 °F - 53.6 °F 94% 29.84 in 10.0 mi SSW 6.9 mph - N/A   Clear